AEE304 LGAV-LGIR

Flight info

Callsign AEE304
Flight time N/A
Altitude 25000
Route KEA L607 GIVIS T514 XAVIS
Aircraft A320/M-SDE3FGHIRWY/LB1

Departure

Time N/A
Airport Athens Eleftherios Venizelos International Airport (LGAV)

Arrival

Time 2026-05-01 07:31
Airport Heraklion International Nikos Kazantzakis Airport (LGIR)
Time Latitude Longitude Altitude Speed Heading
2026-05-01 07:23 35.71028 25.25290 18568 ft 394 kts 161°
2026-05-01 07:23 35.66218 25.27846 17996 ft 366 kts 162°
2026-05-01 07:24 35.63867 25.29088 16668 ft 374 kts 162°
2026-05-01 07:24 35.61430 25.30364 15209 ft 386 kts 162°
2026-05-01 07:24 35.58926 25.31675 13738 ft 396 kts 161°
2026-05-01 07:24 35.56368 25.33025 12154 ft 401 kts 161°
2026-05-01 07:25 35.53804 25.34388 10646 ft 401 kts 160°
2026-05-01 07:25 35.51250 25.35750 9134 ft 399 kts 160°
2026-05-01 07:25 35.48719 25.37097 7608 ft 394 kts 159°
2026-05-01 07:25 35.46219 25.38422 6213 ft 386 kts 159°
2026-05-01 07:26 35.43829 25.39826 4846 ft 377 kts 154°
2026-05-01 07:26 35.41550 25.41332 3797 ft 362 kts 152°
2026-05-01 07:26 35.39425 25.42751 3375 ft 332 kts 157°
2026-05-01 07:26 35.37306 25.43246 3178 ft 296 kts 187°
2026-05-01 07:27 35.35521 25.42404 3043 ft 261 kts 222°
2026-05-01 07:27 35.34553 25.40718 2997 ft 228 kts 249°
2026-05-01 07:27 35.33949 25.39034 3006 ft 206 kts 248°
2026-05-01 07:27 35.33373 25.37503 3029 ft 189 kts 249°
2026-05-01 07:28 35.32993 25.36043 2997 ft 169 kts 259°
2026-05-01 07:28 35.32855 25.34682 2838 ft 155 kts 270°
2026-05-01 07:28 35.32905 25.33410 2654 ft 146 kts 277°
2026-05-01 07:28 35.32992 25.32204 2450 ft 143 kts 278°
2026-05-01 07:29 35.33078 25.30967 2277 ft 149 kts 276°
2026-05-01 07:29 35.33168 25.29654 2050 ft 159 kts 278°
2026-05-01 07:29 35.33263 25.28283 1794 ft 163 kts 281°
2026-05-01 07:29 35.33360 25.26902 1539 ft 162 kts 278°
2026-05-01 07:30 35.33454 25.25550 1306 ft 158 kts 280°
2026-05-01 07:30 35.33550 25.24226 1028 ft 154 kts 278°
2026-05-01 07:30 35.33651 25.22936 810 ft 148 kts 275°
2026-05-01 07:30 35.33724 25.21665 600 ft 153 kts 277°
2026-05-01 07:31 35.33799 25.20371 339 ft 151 kts 281°
2026-05-01 07:31 35.34047 25.17065 90 ft 27 kts 271°
2026-05-01 07:32 35.34032 25.16873 92 ft 8 kts 191°
2026-05-01 07:32 35.33990 25.16918 90 ft 10 kts 126°
2026-05-01 07:33 35.33937 25.17127 90 ft 16 kts 98°
2026-05-01 07:33 35.33926 25.17279 93 ft 19 kts 93°
2026-05-01 07:33 35.33875 25.17503 91 ft 7 kts 183°
2026-05-01 07:34 35.33848 25.17463 92 ft 6 kts 275°
2026-05-01 07:34 35.33878 25.17424 91 ft 0 kts 316°